Simultaneous Nadir Overpasses (SNOs) Predictions

Prediction of SNOs between GOES-15 and TERRA Satellite Orbit:

Table of predicted SNOs for the next 14.0 days since TLE Epoch: 12/10/2022
Index Date Time (GOES-15) GOES-15 Lat,Lon TERRA Lat,Lon Distance(km) Time Diff (sec)
1 12/10/2022 18:29:11 -0.13,-127.62 -0.92,-123.94 419.78 80
2 12/11/2022 06:49:40 0.12,-127.63 -0.14,-128.91 145.41 80
3 12/13/2022 06:31:16 0.11,-127.54 0.62,-125.10 277.71 80
4 12/13/2022 18:51:37 -0.11,-127.50 0.45,-130.04 289.27 80
5 12/15/2022 18:38:34 -0.10,-127.41 -0.38,-126.24 133.93 80
6 12/16/2022 06:59:01 0.09,-127.42 -0.73,-131.20 430.44 80
7 12/18/2022 06:43:18 0.09,-127.33 0.06,-127.40 8.24 80
8 12/20/2022 06:24:54 0.10,-127.24 0.86,-123.60 413.93 80
9 12/20/2022 18:45:14 -0.09,-127.18 0.20,-128.54 154.18 80
10 12/22/2022 18:32:09 -0.09,-127.08 -0.55,-124.72 266.84 80
11 12/23/2022 06:52:38 0.08,-127.08 -0.48,-129.70 297.50 80
